Regional Weather Roundup
Issued by NWS Northern Indiana

Home | Current Version | Previous Version | Graphics & Text | Print | Product List | Glossary On
Versions: 1 2 3 4 5 6 7 8 9 10 11 12 13 14 15 16 17 18 19 20 21 22 23 24 25 26 27 28 29 30 31 32 33 34 35 36 37 38 39 40 41 42 43 44 45 46 47 48 49 50
000
ASUS43 KIWX 040100
RWRIWX

KIWX WEATHER ROUNDUP
NATIONAL WEATHER SERVICE NORTHERN INDIANA
900 PM EDT TUE MAY 03 2016

NOTE: "FAIR" INDICATES FEW OR NO CLOUDS BELOW 12,000 FEET WITH NO
SIGNIFICANT WEATHER AND/OR OBSTRUCTIONS TO VISIBILITY.

* THESE STATIONS ARE NOT UNDER NWS QUALITY CONTROL. THEY ALSO MAY NOT
  REPORT WEATHER SUCH AS PRECIPITATION OR FOG.

INZ001>027-040200-
NORTHERN INDIANA

CITY           SKY/WX    TMP DP  RH WIND       PRES   REMARKS
GARY*          MOCLDY    64  46  52 W9        29.79S
SOUTH BEND     CLOUDY    59  38  45 SW6       29.80S
ELKHART*       CLOUDY    59  41  51 SW3       29.80S
GOSHEN         CLOUDY    56  42  59 S5        29.80S
ANGOLA*        PTCLDY    55  45  67 CALM      29.80S
FORT WAYNE     CLEAR     53  44  71 S7        29.83S

$$
INZ028>050-040200-
CENTRAL INDIANA

CITY           SKY/WX    TMP DP  RH WIND       PRES   REMARKS
LAFAYETTE      CLOUDY    58  42  55 W5        29.83S
KOKOMO*        MOCLDY    54  45  71 S6        29.83S
MUNCIE*        CLEAR     56  43  61 SW3       29.85S
INDIANAPOLIS   PTCLDY    56  37  49 SW5       29.85S

$$
MIZ043>046-050>051-056>058-064>065-071>073-077>080-040200-
SOUTHWEST LOWER MICHIGAN

CITY           SKY/WX    TMP DP  RH WIND       PRES   REMARKS
BATTLE CREEK   CLOUDY    57  35  43 SW8       29.78S
BENTON HARBOR  CLOUDY    61  37  41 S7        29.77F
COLDWATER*     CLOUDY    56  37  50 SW3       29.79S
HILLSDALE*     CLEAR     57  32  38 SW5       29.79S
HOLLAND        PTCLDY    58  36  43 SW12      29.75F
GRAND RAPIDS   CLOUDY    60  37  42 S7        29.75F
KALAMAZOO      CLOUDY    58  35  42 SW7       29.78S
STURGIS*       CLOUDY    58  35  42 CALM      29.79S
THREE RIVERS*  CLOUDY    60  34  37 CALM      29.79S

$$
OHZ001>008-015>018-024>025-040200-
NORTHWEST OHIO

CITY           SKY/WX    TMP DP  RH WIND       PRES   REMARKS
DEFIANCE       CLEAR     55  41  59 S7        29.81F
FINDLAY        CLEAR     55  40  56 SW6       29.82R
TOLEDO EXPRESS CLEAR     57  38  48 SW6       29.80S
TOLEDO METCALF CLEAR     53  44  71 S5        29.81S
LIMA           PTCLDY    52  43  71 S6        29.83S

$$
AND FOR LAKE MICHIGAN COASTAL AND OPEN LAKE BUOY OBSERVATIONS

STATION/POSITION TEMP    WIND        PRES    VSBY  WAVE
                 AIR SEA DIR/SP/G                  HT/PER
                 (F)     (DEG/KT/KT) (MB)    (MI)  (FT/S)
CALUMET HARBOR                       1007.9F
MICHIGAN CITY     62     200/ 10/ 11   N/A
BURNS HARBOR      61     240/  8/ 11 1009.1F
SAINT JOSEPH      61     180/  8/ 11 1008.5F
SOUTH LAKE BUOY   47 41  170/ 14/ 14 1007.1          1/ 3
4 MI NW BRIDGMAN  55 50                N/A           0

$$
&&



USA.gov is the U.S. government's official web portal to all federal, state and local government web resources and services.